Location: Squirrel Cove
(50.1074°N, 124.9139°W)
Time: 12:55:04
(UTC-07:00)

PCSat - Pass Details

Date: 22 May 2022
Orbit: 784 x 795 km, 67.1° (Epoch: 26 June)

Event Time Altitude Azimuth Distance (km) Brightness Sun altitude
Rises 04:11:07 0° 321° (NW) 3,306 12.9 -9.6°
Reaches altitude 10° 04:13:36 10° 316° (NW) 2,373 12.1 -9.3°
Maximum altitude 04:18:50 50° 242° (WSW) 1,008 9.8 -8.8°
Drops below altitude 10° 04:24:02 10° 169° (SSE) 2,355 11.7 -8.2°
Sets 04:26:30 0° 164° (SSE) 3,280 12.5 -7.9°
